Total_Precipitation_Accumulation
1.14 1.16 1.14 1.03 0.90 0.86 0.79 0.73 0.75 0.81 0.86 0.86 0.90 1.00 1.03 1.05 1.11 1.11 1.14 1.21 1.27 1.39 1.46 1.61 1.84 2.04 2.13 2.15 2.21 2.27 2.29 2.15 1.88 1.70 1.44 1.39 1.48 1.42 1.43 1.40 1.50 1.55 1.32
1.13 1.11 1.06 0.99 0.89 0.89 0.80 0.70 0.74 0.80 0.81 0.83 0.91 0.95 0.95 1.01 1.05 1.02 1.04 1.11 1.22 1.29 1.31 1.34 1.46 1.73 1.91 2.04 2.15 2.19 2.23 2.19 1.99 1.94 1.81 1.56 1.47 1.44 1.54 1.64 1.59 1.57 1.50
1.17 1.09 1.08 1.03 1.00 1.02 0.89 0.80 0.79 0.86 0.97 1.00 1.00 1.04 0.99 1.00 1.01 1.01 1.05 1.10 1.11 1.17 1.20 1.21 1.31 1.44 1.60 1.72 1.85 1.98 2.05 2.16 2.14 1.94 1.97 1.87 1.63 1.56 1.56 1.65 1.73 1.85 1.71
1.34 1.20 1.15 1.15 1.18 1.16 1.01 0.94 0.85 0.84 0.87 0.90 0.97 1.04 1.11 1.15 1.12 1.08 1.13 1.15 1.09 1.09 1.14 1.20 1.24 1.27 1.46 1.69 1.81 1.93 1.97 2.09 2.22 2.11 2.02 1.94 1.78 1.71 1.66 1.68 1.86 1.97 1.95
1.35 1.18 1.08 1.07 1.05 1.02 1.04 1.08 1.00 0.86 0.79 0.77 0.85 0.93 1.04 1.13 1.17 1.17 1.06 1.00 1.02 1.07 1.06 1.04 1.12 1.24 1.37 1.58 1.68 1.92 1.97 2.12 2.21 2.21 2.07 1.87 1.73 1.70 1.66 1.63 1.80 2.02 2.07
1.14 1.07 0.96 0.97 0.94 0.87 0.91 1.03 1.08 0.94 0.86 0.80 0.78 0.77 0.80 0.85 1.06 1.08 0.95 0.84 0.89 1.02 1.09 1.06 1.05 1.12 1.21 1.31 1.36 1.61 1.81 1.96 2.08 2.06 2.03 1.86 1.70 1.63 1.73 1.76 1.79 1.87 1.99
0.88 0.84 0.74 0.77 0.91 0.95 1.00 1.00 0.91 0.85 0.87 0.85 0.76 0.68 0.69 0.75 0.84 0.82 0.88 0.85 0.86 0.93 1.02 1.09 1.13 1.10 1.18 1.26 1.29 1.40 1.51 1.58 1.72 1.83 1.83 1.74 1.71 1.65 1.73 1.77 1.78 1.72 1.64
0.62 0.60 0.56 0.64 0.82 0.88 0.84 0.81 0.75 0.74 0.79 0.85 0.77 0.71 0.75 0.77 0.80 0.82 0.86 0.82 0.93 1.02 1.01 1.00 1.14 1.18 1.22 1.39 1.38 1.46 1.41 1.36 1.40 1.47 1.60 1.64 1.60 1.69 1.77 1.93 2.02 1.89 1.74
0.45 0.46 0.53 0.57 0.60 0.64 0.63 0.62 0.66 0.72 0.74 0.68 0.71 0.85 0.85 0.87 0.98 0.90 0.81 0.81 0.93 1.01 0.97 0.99 1.11 1.19 1.39 1.52 1.52 1.51 1.41 1.34 1.43 1.53 1.65 1.73 1.73 1.79 1.87 1.94 1.98 1.99 1.91
0.42 0.48 0.52 0.55 0.60 0.61 0.64 0.65 0.67 0.69 0.73 0.74 0.77 0.89 0.92 0.95 1.01 0.88 0.85 0.89 0.98 1.05 1.03 1.02 1.23 1.21 1.35 1.41 1.45 1.56 1.54 1.42 1.40 1.41 1.45 1.51 1.50 1.59 1.84 1.88 2.01 2.09 1.93
0.50 0.49 0.50 0.53 0.58 0.64 0.71 0.72 0.71 0.71 0.73 0.78 0.79 0.82 0.80 0.76 0.78 0.80 0.85 0.86 0.94 1.03 0.99 0.97 0.93 1.10 1.14 1.25 1.36 1.43 1.70 1.61 1.52 1.52 1.46 1.37 1.37 1.41 1.52 1.72 1.89 1.96 1.92
0.52 0.50 0.51 0.56 0.58 0.63 0.74 0.79 0.78 0.79 0.77 0.77 0.79 0.84 0.85 0.79 0.74 0.74 0.80 0.88 0.99 0.95 0.87 0.90 0.90 1.05 1.08 1.13 1.14 1.35 1.60 1.61 1.49 1.55 1.52 1.43 1.37 1.40 1.41 1.48 1.65 1.69 1.65
0.50 0.53 0.56 0.59 0.59 0.59 0.65 0.72 0.76 0.80 0.81 0.80 0.81 0.85 0.82 0.80 0.81 0.84 0.84 0.89 0.92 0.84 0.76 0.91 0.99 1.07 1.04 0.98 1.12 1.36 1.41 1.42 1.56 1.53 1.51 1.43 1.35 1.40 1.41 1.46 1.54 1.54 1.48
0.55 0.61 0.64 0.66 0.66 0.64 0.66 0.70 0.74 0.77 0.79 0.77 0.76 0.83 0.86 0.84 0.80 0.77 0.77 0.80 0.79 0.77 0.80 0.98 1.14 1.19 1.13 1.06 1.12 1.24 1.25 1.35 1.51 1.41 1.37 1.33 1.31 1.39 1.47 1.52 1.48 1.49 1.51
0.58 0.65 0.72 0.73 0.72 0.72 0.72 0.72 0.71 0.70 0.76 0.76 0.75 0.79 0.81 0.78 0.81 0.86 0.83 0.80 0.78 0.81 0.92 1.09 1.24 1.28 1.32 1.24 1.21 1.25 1.20 1.18 1.25 1.20 1.24 1.30 1.34 1.35 1.36 1.42 1.42 1.38 1.43
0.64 0.65 0.67 0.73 0.75 0.71 0.70 0.70 0.73 0.73 0.79 0.77 0.74 0.77 0.76 0.77 0.83 0.85 0.89 0.91 0.89 0.99 1.15 1.25 1.37 1.45 1.47 1.45 1.41 1.35 1.23 1.17 1.11 1.14 1.25 1.30 1.29 1.31 1.34 1.36 1.43 1.43 1.41
0.58 0.62 0.63 0.63 0.65 0.69 0.71 0.70 0.72 0.72 0.71 0.73 0.74 0.77 0.79 0.82 0.83 0.93 1.03 1.08 1.12 1.26 1.38 1.39 1.41 1.45 1.47 1.42 1.36 1.27 1.15 1.06 1.06 1.13 1.16 1.19 1.23 1.27 1.32 1.33 1.35 1.37 1.31
0.53 0.64 0.65 0.62 0.63 0.68 0.72 0.73 0.74 0.78 0.79 0.72 0.70 0.72 0.75 0.78 0.84 1.00 1.22 1.34 1.38 1.48 1.48 1.47 1.54 1.52 1.48 1.35 1.24 1.15 1.03 1.02 1.05 1.06 1.05 1.03 1.10 1.20 1.26 1.29 1.32 1.34 1.31
0.45 0.56 0.62 0.64 0.64 0.68 0.72 0.74 0.74 0.75 0.79 0.82 0.80 0.76 0.77 0.80 0.82 0.90 1.03 1.06 1.07 1.16 1.21 1.22 1.25 1.27 1.23 1.15 1.10 1.08 1.03 1.02 1.02 1.03 1.03 1.02 1.08 1.14 1.15 1.17 1.26 1.39 1.42
0.41 0.55 0.61 0.63 0.64 0.65 0.69 0.72 0.75 0.73 0.71 0.73 0.76 0.76 0.81 0.85 0.80 0.79 0.82 0.88 0.95 0.97 1.01 1.01 0.99 0.96 0.95 0.96 0.98 1.03 1.06 1.06 1.07 1.08 1.10 1.10 1.13 1.19 1.17 1.17 1.21 1.29 1.35
0.39 0.48 0.58 0.62 0.61 0.61 0.63 0.66 0.69 0.73 0.73 0.72 0.72 0.81 0.90 0.86 0.84 0.85 0.88 0.93 0.98 1.01 1.05 1.05 1.01 0.97 0.92 0.92 0.98 1.04 1.07 1.08 1.07 1.09 1.13 1.14 1.14 1.17 1.18 1.21 1.23 1.27 1.32
0.40 0.46 0.51 0.57 0.64 0.65 0.62 0.60 0.61 0.63 0.69 0.71 0.69 0.74 0.84 0.81 0.84 0.86 0.89 0.95 0.98 1.00 1.04 1.08 1.04 1.03 1.00 0.98 1.03 1.12 1.15 1.16 1.17 1.17 1.15 1.13 1.14 1.16 1.17 1.21 1.24 1.31 1.36
0.40 0.46 0.51 0.55 0.60 0.67 0.68 0.61 0.59 0.60 0.65 0.72 0.72 0.71 0.75 0.76 0.81 0.83 0.84 0.91 1.00 1.00 0.98 1.01 1.05 1.05 1.01 0.98 1.00 1.09 1.17 1.21 1.23 1.23 1.22 1.19 1.19 1.21 1.24 1.24 1.23 1.26 1.32
0.46 0.51 0.53 0.53 0.57 0.60 0.61 0.64 0.67 0.67 0.66 0.70 0.72 0.73 0.75 0.77 0.79 0.81 0.80 0.81 0.89 0.95 0.97 1.00 1.02 1.02 1.04 1.05 1.08 1.11 1.14 1.21 1.27 1.30 1.33 1.33 1.28 1.25 1.27 1.28 1.25 1.26 1.36
0.48 0.54 0.57 0.58 0.61 0.65 0.67 0.67 0.71 0.76 0.75 0.76 0.79 0.78 0.77 0.79 0.82 0.87 0.87 0.84 0.84 0.88 0.90 0.93 0.95 0.98 1.02 1.06 1.09 1.15 1.34 1.40 1.37 1.35 1.33 1.34 1.28 1.27 1.29 1.30 1.29 1.31 1.38
0.46 0.51 0.57 0.61 0.65 0.71 0.75 0.74 0.73 0.77 0.80 0.81 0.81 0.80 0.79 0.83 0.84 0.86 0.89 0.91 0.91 0.91 0.92 0.97 0.99 0.96 0.94 0.94 0.98 1.10 1.23 1.25 1.28 1.34 1.35 1.37 1.38 1.34 1.36 1.41 1.37 1.37 1.40